Ithaca, NY

5:36 PM EST on February 26, 2017 (GMT -0500)
Tompkins County

Weather History for KITH - September, 2012

Change the Weather History Date:

Wednesday, September 5, 2012

  Actual Average Record
Temperature  
Mean Temperature 68 °F -  
Max Temperature 75 °F 73 °F 93 °F (1953)
Min Temperature 61 °F 51 °F 38 °F (1974)
Cooling Degree Days 3    
Growing Degree Days 18 (Base 50)    
Moisture  
Dew Point 64 °F    
Average Humidity 92    
Maximum Humidity 100    
Minimum Humidity 62    
Precipitation  
Precipitation 0.00 in - - ()
Sea Level Pressure  
Sea Level Pressure 29.86 in    
Wind  
Wind Speed 9 mph (NNW)    
Max Wind Speed 16 mph    
Max Gust Speed 17 mph    
Visibility 8 miles    
Events Fog , Rain    
Averages and records for this station are not official NWS values.
T = Trace of Precipitation, MM = Missing Value Source: NWS Daily Summary

Daily Weather History Graph

Daily Weather History Graph

Search for Another Location

Airport or City:

Trip Planner

Search our weather history database for the weather conditions in past years. The results will help you decide how hot, cold, wet, or windy it might be!

Date:

Astronomy

Sep. 05, 2012 Rise Set
Actual Time 6:35 AM EDT 7:32 PM EDT
Civil Twilight 6:06 AM EDT 8:00 PM EDT
Nautical Twilight 5:32 AM EDT 8:34 PM EDT
Astronomical Twilight 4:57 AM EDT 9:10 PM EDT
Moon 9:52 PM EDT (9/5) 11:45 AM EDT (9/5)
Length of Visible Light 13h 54m
Length of Day
12h 56m
Waning Gibbous, 76% of the Moon is Illuminated
Sep 5
Waning Gibbous
Sep 8
Last Quarter
Sep 15
New
Sep 22
First Quarter
Sep 29
Full

Hourly Weather History & Observations

Time (EDT) Temp. Dew Point Humidity Pressure Visibility Wind Dir Wind Speed Gust Speed Precip Events Conditions
12:56 AM 68.0 °F 66.9 °F 96% 29.80 in 6.0 mi WNW 13.8 mph - 0.00 in   Overcast
1:16 AM 66.2 °F 66.2 °F 100% 29.82 in 1.8 mi NW 16.1 mph - N/A   Overcast
1:19 AM 66.2 °F 66.2 °F 100% 29.83 in 1.0 mi NW 13.8 mph - N/A   Overcast
1:24 AM 66.2 °F 66.2 °F 100% 29.83 in 0.5 mi NW 16.1 mph - N/A Fog Fog
1:42 AM 66.2 °F 66.2 °F 100% 29.83 in 0.2 mi NW 11.5 mph - N/A Fog Fog
1:56 AM 65.8 °F 65.8 °F 100% 29.82 in 0.2 mi NW 12.7 mph - N/A Fog Fog
2:08 AM 66.2 °F 66.2 °F 100% 29.84 in 0.5 mi NW 11.5 mph - N/A Fog Fog
2:14 AM 66.2 °F 66.2 °F 100% 29.84 in 1.0 mi NW 10.4 mph - N/A   Overcast
2:16 AM 66.2 °F 66.2 °F 100% 29.84 in 1.8 mi NW 9.2 mph - N/A   Overcast
2:18 AM 66.2 °F 66.2 °F 100% 29.84 in 4.0 mi NW 8.1 mph 17.3 mph N/A   Overcast
2:44 AM 66.2 °F 66.2 °F 100% 29.84 in 10.0 mi NNW 6.9 mph - N/A   Overcast
2:56 AM 65.8 °F 64.9 °F 97% 29.83 in 10.0 mi NNW 8.1 mph - N/A   Overcast
3:10 AM 66.2 °F 64.4 °F 94% 29.85 in 10.0 mi NNW 6.9 mph - N/A   Overcast
3:35 AM 66.2 °F 64.4 °F 94% 29.86 in 10.0 mi NNW 5.8 mph - N/A   Overcast
3:56 AM 65.8 °F 64.9 °F 97% 29.84 in 10.0 mi NW 3.5 mph - N/A   Overcast
4:10 AM 64.4 °F 64.4 °F 100% 29.86 in 10.0 mi NW 6.9 mph - N/A   Overcast
4:19 AM 64.4 °F 64.4 °F 100% 29.86 in 10.0 mi NW 6.9 mph - N/A   Overcast
4:33 AM 64.4 °F 64.4 °F 100% 29.86 in 10.0 mi NW 8.1 mph - N/A   Overcast
4:47 AM 64.4 °F 64.4 °F 100% 29.86 in 10.0 mi North 3.5 mph - N/A   Overcast
4:56 AM 64.9 °F 63.9 °F 96% 29.85 in 10.0 mi North 5.8 mph - N/A   Overcast
5:37 AM 64.4 °F 62.6 °F 94% 29.87 in 10.0 mi NNW 3.5 mph - N/A   Overcast
5:56 AM 63.9 °F 63.9 °F 100% 29.86 in 10.0 mi NNW 3.5 mph - N/A   Overcast
6:18 AM 64.4 °F 64.4 °F 100% 29.88 in 10.0 mi NNW 5.8 mph - N/A   Overcast
6:23 AM 64.4 °F 64.4 °F 100% 29.88 in 6.0 mi NNW 6.9 mph - N/A   Overcast
6:56 AM 64.9 °F 63.9 °F 96% 29.88 in 6.0 mi NNW 5.8 mph - N/A   Overcast
7:13 AM 64.4 °F 64.4 °F 100% 29.89 in 7.0 mi NW 5.8 mph - N/A   Overcast
7:56 AM 64.9 °F 63.9 °F 96% 29.88 in 10.0 mi NW 5.8 mph - N/A   Overcast
8:56 AM 64.9 °F 63.9 °F 96% 29.88 in 10.0 mi North 4.6 mph - N/A   Overcast
9:56 AM 66.9 °F 63.0 °F 87% 29.90 in 10.0 mi NNW 6.9 mph - N/A   Overcast
10:56 AM 65.8 °F 63.9 °F 93% 29.90 in 4.0 mi NNW 4.6 mph - 0.00 in Rain Light Rain Showers
11:56 AM 68.9 °F 63.9 °F 84% 29.91 in 10.0 mi NNW 5.8 mph - 0.00 in   Overcast
12:56 PM 72.0 °F 64.9 °F 78% 29.90 in 10.0 mi NW 6.9 mph - N/A   Mostly Cloudy
1:56 PM 73.9 °F 63.9 °F 71% 29.89 in 10.0 mi WNW 6.9 mph - N/A   Mostly Cloudy
2:56 PM 75.9 °F 63.0 °F 64% 29.87 in 10.0 mi NW 6.9 mph - N/A   Mostly Cloudy
3:56 PM 75.9 °F 61.9 °F 62% 29.86 in 10.0 mi WNW 8.1 mph - N/A   Mostly Cloudy
4:56 PM 75.9 °F 61.9 °F 62% 29.86 in 10.0 mi WNW 8.1 mph - N/A   Scattered Clouds
5:56 PM 74.8 °F 61.0 °F 62% 29.87 in 10.0 mi WNW 5.8 mph - N/A   Scattered Clouds
6:56 PM 72.9 °F 61.0 °F 66% 29.88 in 10.0 mi NW 5.8 mph - N/A   Mostly Cloudy
7:56 PM 66.9 °F 61.9 °F 84% 29.88 in 10.0 mi NE 3.5 mph - N/A   Scattered Clouds
8:56 PM 63.0 °F 61.9 °F 96% 29.90 in 10.0 mi East 4.6 mph - N/A   Partly Cloudy
9:56 PM 61.9 °F 61.0 °F 97% 29.89 in 10.0 mi Calm Calm - N/A   Clear
10:56 PM 61.9 °F 61.9 °F 100% 29.88 in 10.0 mi East 5.8 mph - N/A   Clear